Lihue, HI

3:42 AM HST on May 30, 2017 (GMT -1000)
Lihue

Weather History for PHLI - July, 2013

Change the Weather History Date:

Monday, July 29, 2013

  Actual Average Record
Temperature  
Mean Temperature 79 °F 79 °F  
Max Temperature 84 °F 84 °F 88 °F (1982)
Min Temperature 74 °F 75 °F 67 °F (1965)
Degree Days  
Heating Degree Days 0 0  
Month to date heating degree days 0 0  
Since 1 June heating degree days 0 0  
Since 1 July heating degree days 0 0  
Cooling Degree Days 14 14  
Month to date cooling degree days 351 406  
Year to date cooling degree days 1815 2039  
Since 1 June cooling degree days 733 800  
Growing Degree Days 28 (Base 50)    
Moisture  
Dew Point 74 °F    
Average Humidity 87    
Maximum Humidity 100    
Minimum Humidity 74    
Precipitation  
Precipitation 0.01 in 0.07 in 1.17 in (1974)
Month to date precipitation 0.69 1.73  
Year to date precipitation 16.19 19.18  
Snow  
Snow 0.00 in - - ()
Month to date snowfall 0.0  
Since 1 June snowfall 0.0  
Since 1 July snowfall 0.0  
Snow Depth 0.00 in    
Sea Level Pressure  
Sea Level Pressure 29.95 in    
Wind  
Wind Speed 15 mph (NNE)    
Max Wind Speed 23 mph    
Max Gust Speed 28 mph    
Visibility 9 miles    
Events Rain    
T = Trace of Precipitation, MM = Missing Value Source: NWS Daily Summary

Daily Weather History Graph

Daily Weather History Graph

Search for Another Location

Airport or City:

Trip Planner

Search our weather history database for the weather conditions in past years. The results will help you decide how hot, cold, wet, or windy it might be!

Date:

Astronomy

Jul. 29, 2013 Rise Set
Actual Time 6:08 AM HST 7:18 PM HST
Civil Twilight 5:44 AM HST 7:42 PM HST
Nautical Twilight 5:16 AM HST 8:10 PM HST
Astronomical Twilight 4:47 AM HST 8:40 PM HST
Moon No Moon Rise 12:58 PM HST (7/29)
Length of Visible Light 13h 57m
Length of Day
13h 09m
Waning Gibbous, 48% of the Moon is Illuminated
Jul 29
Waning Gibbous
Aug 6
New
Aug 14
First Quarter
Aug 20
Full
Aug 27
Last Quarter

Hourly Weather History & Observations

Time (HST) Temp. Heat Index Dew Point Humidity Pressure Visibility Wind Dir Wind Speed Gust Speed Precip Events Conditions
12:07 AM 75.2 °F - 73.4 °F 94% 30.01 in 10.0 mi NE 15.0 mph - N/A   Overcast
12:53 AM 75.0 °F - 73.0 °F 94% 29.99 in 10.0 mi NNE 13.8 mph - 0.00 in   Mostly Cloudy
1:02 AM 75.2 °F - 73.4 °F 94% 29.99 in 10.0 mi NE 13.8 mph - N/A   Overcast
1:28 AM 75.2 °F - 73.4 °F 94% 29.98 in 10.0 mi NE 15.0 mph - N/A   Overcast
1:53 AM 75.0 °F - 73.0 °F 94% 29.97 in 9.0 mi NE 21.9 mph 27.6 mph N/A   Overcast
2:08 AM 75.2 °F - 73.4 °F 94% 29.97 in 10.0 mi NE 21.9 mph 26.5 mph 0.00 in   Overcast
2:53 AM 75.0 °F - 73.9 °F 96% 29.96 in 10.0 mi NE 12.7 mph - 0.00 in   Overcast
3:35 AM 75.2 °F - 73.4 °F 94% 29.96 in 10.0 mi ENE 11.5 mph - N/A   Mostly Cloudy
3:50 AM 75.2 °F - 73.4 °F 94% 29.96 in 10.0 mi NE 10.4 mph - N/A   Mostly Cloudy
3:53 AM 75.0 °F - 73.9 °F 96% 29.95 in 10.0 mi NNE 10.4 mph - N/A   Mostly Cloudy
4:53 AM 75.0 °F - 73.0 °F 94% 29.95 in 10.0 mi NE 15.0 mph - N/A   Overcast
5:53 AM 75.0 °F - 73.9 °F 96% 29.96 in 9.0 mi NE 12.7 mph - 0.00 in Rain Light Rain
6:37 AM 75.2 °F - 73.4 °F 94% 29.97 in 10.0 mi NNE 13.8 mph - 0.00 in   Mostly Cloudy
6:53 AM 75.9 °F - 73.9 °F 94% 29.97 in 10.0 mi NNE 13.8 mph - 0.00 in   Overcast
7:17 AM 77.0 °F - 73.4 °F 89% 29.99 in 10.0 mi NNE 16.1 mph - N/A   Mostly Cloudy
7:53 AM 77.0 °F - 73.9 °F 90% 29.99 in 9.0 mi NNE 13.8 mph - N/A   Overcast
8:22 AM 77.0 °F - 75.2 °F 94% 30.00 in 5.0 mi NNE 15.0 mph - 0.01 in Rain Light Rain
8:53 AM 75.9 °F - 75.0 °F 97% 29.99 in 7.0 mi NNE 15.0 mph - 0.01 in Rain Light Rain
9:41 AM 77.0 °F - 75.2 °F 94% 30.00 in 10.0 mi NNE 17.3 mph - 0.00 in   Overcast
9:53 AM 78.1 °F - 75.9 °F 93% 30.00 in 10.0 mi NNE 15.0 mph - 0.00 in   Overcast
10:00 AM 78.8 °F - 75.2 °F 89% 30.00 in 10.0 mi NNE 17.3 mph - N/A   Overcast
10:20 AM 80.6 °F 86.2 °F 75.2 °F 84% 30.00 in 10.0 mi NNE 15.0 mph - N/A   Mostly Cloudy
10:53 AM 81.0 °F 86.2 °F 73.9 °F 79% 29.99 in 10.0 mi NNE 16.1 mph - N/A   Mostly Cloudy
11:53 AM 80.1 °F 84.5 °F 73.9 °F 81% 29.97 in 5.0 mi NNE 16.1 mph - N/A   Haze
12:53 PM 84.0 °F 91.9 °F 75.0 °F 74% 29.95 in 10.0 mi NNE 17.3 mph - 0.00 in   Mostly Cloudy
1:32 PM 84.2 °F 92.3 °F 75.2 °F 74% 29.95 in 10.0 mi NNE 18.4 mph - N/A   Scattered Clouds
1:53 PM 82.9 °F 90.2 °F 75.0 °F 77% 29.94 in 10.0 mi NNE 18.4 mph - N/A   Partly Cloudy
2:07 PM 80.6 °F 85.4 °F 73.4 °F 79% 29.94 in 7.0 mi NNE 19.6 mph 26.5 mph 0.00 in Rain Light Rain
2:31 PM 80.6 °F 86.2 °F 75.2 °F 84% 29.94 in 10.0 mi NNE 20.7 mph 26.5 mph 0.00 in   Overcast
2:42 PM 80.6 °F 86.2 °F 75.2 °F 84% 29.94 in 10.0 mi NNE 18.4 mph - 0.00 in   Overcast
2:53 PM 82.9 °F 90.2 °F 75.0 °F 77% 29.93 in 10.0 mi NNE 16.1 mph - 0.00 in   Overcast
3:14 PM 82.4 °F 89.5 °F 75.2 °F 79% 29.93 in 10.0 mi NNE 18.4 mph - N/A   Mostly Cloudy
3:53 PM 82.9 °F 90.2 °F 75.0 °F 77% 29.91 in 10.0 mi North 19.6 mph - N/A   Mostly Cloudy
4:12 PM 82.4 °F 88.2 °F 73.4 °F 74% 29.91 in 10.0 mi North 20.7 mph - N/A   Mostly Cloudy
4:53 PM 82.0 °F 88.6 °F 75.0 °F 79% 29.90 in 10.0 mi North 18.4 mph 26.5 mph N/A   Mostly Cloudy
5:53 PM 75.9 °F - 73.9 °F 94% 29.90 in 5.0 mi NNE 19.6 mph - 0.01 in Rain Light Rain
6:06 PM 75.2 °F - 73.4 °F 94% 29.90 in 8.0 mi NNE 17.3 mph - 0.00 in Rain Light Rain
6:21 PM 77.0 °F - 75.2 °F 94% 29.90 in 10.0 mi NNE 16.1 mph - 0.00 in   Overcast
6:53 PM 75.0 °F - 73.9 °F 96% 29.91 in 9.0 mi NNE 13.8 mph - 0.02 in   Mostly Cloudy
7:23 PM 75.2 °F - 75.2 °F 100% 29.92 in 4.0 mi NNE 10.4 mph 25.3 mph 0.00 in Rain Rain
8:53 PM 77.0 °F - 73.9 °F 90% 29.94 in 10.0 mi North 18.4 mph 25.3 mph N/A   Overcast
9:16 PM 75.2 °F - 75.2 °F 100% 29.95 in 10.0 mi North 16.1 mph - 0.00 in   Overcast
9:34 PM 75.2 °F - 75.2 °F 100% 29.94 in 10.0 mi North 16.1 mph 26.5 mph 0.00 in   Overcast
9:53 PM 77.0 °F - 75.0 °F 94% 29.94 in 10.0 mi NNE 16.1 mph - 0.00 in   Overcast
10:01 PM 77.0 °F - 75.2 °F 94% 29.94 in 10.0 mi NNE 21.9 mph 26.5 mph N/A   Overcast
10:53 PM 75.9 °F - 73.9 °F 94% 29.92 in 9.0 mi North 17.3 mph - 0.00 in   Overcast
11:25 PM 73.4 °F - 73.4 °F 100% 29.93 in 3.0 mi NNE 21.9 mph - 0.00 in   Overcast
11:38 PM 73.4 °F - 73.4 °F 100% 29.93 in 2.5 mi North 17.3 mph - 0.01 in   Overcast
11:44 PM 75.2 °F - 73.4 °F 94% 29.92 in 3.0 mi North 15.0 mph - 0.01 in   Overcast
11:53 PM 73.9 °F - 73.9 °F 100% 29.91 in 3.0 mi North 11.5 mph - 0.02 in Rain Rain